Regional Weather Roundup
Issued by NWS Sioux Falls, SD

Home | Current Version | Previous Version | Text Only | Print | Product List | Glossary Off
Versions: 1 2 3 4 5 6 7 8 9 10 11 12 13 14 15 16 17 18 19 20 21 22 23 24 25 26 27 28 29 30 31 32 33 34 35 36 37 38 39 40 41 42 43 44 45 46 47 48 49 50

090
ASUS43 KFSD 010510
RWRFSD

WEATHER ROUNDUP FOR SE SOUTH DAKOTA/SW MINNESOTA/NW IOWA
NATIONAL WEATHER SERVICE SIOUX FALLS SD
1200 AM CDT THU SEP 01 2016

NOTE: "FAIR" INDICATES FEW OR NO CLOUDS BELOW 12,000 FEET WITH NO
SIGNIFICANT WEATHER AND OR OBSTRUCTIONS TO VISIBILITY.


SDZ038>040-050-052>070-010600-
SOUTHEAST SOUTH DAKOTA

CITY           SKY/WX    TMP DP  RH WIND       PRES   REMARKS
BROOKINGS      CLEAR     64  59  83 VRB3      30.23
CHAMBERLAIN    CLEAR     66  61  81 SE7       30.19S
HURON          CLEAR     66  59  78 SE8       30.19S
MADISON        FAIR      61  61 100 SE5       30.23S
MITCHELL       CLEAR     65  59  81 S5        30.20R
SIOUX FALLS    PTCLDY    66  60  81 E3        30.22S
WINNER         FAIR      70  58  65 S12       30.20S
YANKTON        CLEAR     64  57  77 CALM      30.20S
$$

MNZ071-072-080-081-089-090-097-098-010600-
SOUTHWEST MINNESOTA

CITY           SKY/WX    TMP DP  RH WIND       PRES   REMARKS
FAIRMONT       CLEAR     60  58  92 CALM      30.21F
JACKSON        CLEAR     59  55  88 CALM      30.23S
LUVERNE        CLEAR     59  55  88 CALM      30.23S
MARSHALL       CLEAR     61  58  90 CALM      30.22S
MONTEVIDEO     CLEAR     63  57  82 CALM      30.23S
REDWOOD FALLS  CLEAR     66  59  78 CALM      30.21S
TRACY          CLEAR     64  61  90 CALM      30.23S
WINDOM         CLEAR     59  57  94 CALM      30.22S
WORTHINGTON    CLEAR     59  56  89 CALM      30.23F
$$

IAZ001>003-012>014-020>022-031-032-NEZ013-014-SDZ071-010600-
NORTHWEST IOWA

CITY           SKY/WX    TMP DP  RH WIND       PRES   REMARKS
CHEROKEE       CLEAR     60  60 100 CALM      30.22S
DENISON        CLEAR     57  57 100 CALM      30.19R
ESTHERVILLE    CLEAR     56  56 100 NW3       30.22S
LE MARS        CLEAR     61  59  94 CALM      30.22S
ORANGE CITY    CLEAR     64  59  82 CALM      30.22S
SHELDON        CLEAR     57  57 100 CALM      30.21S
SIOUX CITY     CLEAR     63  60  90 CALM      30.20S
SPENCER        CLEAR     59  56  89 CALM      30.22S
STORM LAKE     CLEAR     63  59  88 NE6       30.22S
$$

ABBREVIATIONS USED IN REMARKS
   TC - TEMPERATURE IN CELSIUS
  WCI - WIND CHILL INDEX
   HX - HEAT INDEX
  VSB - VISIBILITY





USA.gov is the U.S. government's official web portal to all federal, state and local government web resources and services.